EW1647 Weather Reports


Display with metric or nautical units.
time (UTC)temp
F
wind
direction
speed
MPH
gust
MPH
rain 1hr
in
rain 24hr
in
rain mn
in
humidity
%
barometer
mb
20260509121600 49 235 2.0 4.0 0.00 0.00 0.00 92 1023.1
20260509120036 48 235 0.0 0.0 0.00 0.00 0.00 90 1023.2
20260509114538 48 235 0.0 0.0 0.00 0.00 0.00 88 1023.2
20260509113037 49 235 0.0 0.0 0.00 0.00 0.00 87 1023.2
20260509111530 49 235 0.0 0.0 0.00 0.00 0.00 86 1023.2
20260509110032 50 235 0.0 0.0 0.00 0.00 0.00 86 1023.4
20260509104537 51 235 0.0 0.0 0.00 0.00 0.00 86 1023.4
20260509103023 51 235 0.0 0.0 0.00 0.00 0.00 85 1023.4
20260509101529 52 235 0.0 0.0 0.00 0.00 0.00 85 1023.5
20260509100018 52 235 0.0 0.0 0.00 0.00 0.00 86 1023.5
20260509094527 53 235 0.0 0.0 0.00 0.00 0.00 85 1023.7
20260509093015 53 235 0.0 0.0 0.00 0.00 0.00 85 1023.6
20260509091524 53 235 0.0 0.0 0.00 0.00 0.00 85 1023.8
20260509090014 53 235 0.0 0.0 0.00 0.00 0.00 85 1023.9
20260509084514 54 235 0.0 4.0 0.00 0.00 0.00 85 1023.9
20260509083014 54 203 2.0 4.0 0.00 0.00 0.00 85 1023.9
20260509081523 54 217 3.0 7.0 0.00 0.00 0.00 85 1023.9
20260509080012 53 189 0.0 3.0 0.00 0.00 0.00 85 1023.8
20260509074510 53 186 3.0 5.0 0.00 0.00 0.00 85 1023.7
20260509073008 53 188 2.0 6.0 0.00 0.00 0.00 85 1023.8
20260509071505 53 179 1.0 6.0 0.00 0.00 0.00 85 1023.7
20260509070009 53 204 2.0 6.0 0.00 0.00 0.00 85 1023.6
20260509064502 53 209 2.0 8.0 0.00 0.00 0.00 85 1023.6
20260509063003 53 175 3.0 7.0 0.00 0.00 0.00 84 1023.5
20260509061604 53 200 4.0 7.0 0.00 0.00 0.00 84 1023.5
20260509060058 53 196 2.0 8.0 0.00 0.00 0.00 83 1023.4
20260509054603 53 226 3.0 5.0 0.00 0.00 0.00 82 1023.4
20260509053105 54 185 2.0 5.0 0.00 0.00 0.00 82 1023.4
20260509051558 54 206 3.0 5.0 0.00 0.00 0.00 80 1023.3
20260509050054 54 211 2.0 6.0 0.00 0.00 0.00 79 1023.2
20260509044554 54 242 3.0 8.0 0.00 0.00 0.00 78 1023.2
20260509043054 55 215 2.0 9.0 0.00 0.00 0.00 77 1023.1
20260509041615 55 236 3.0 9.0 0.00 0.00 0.00 76 1023.0
20260509040050 55 230 2.0 8.0 0.00 0.00 0.00 75 1022.8
20260509034647 56 232 4.0 8.0 0.00 0.00 0.00 74 1022.7
20260509033046 57 248 1.0 8.0 0.00 0.00 0.00 72 1022.6
20260509031545 57 241 4.0 9.0 0.00 0.00 0.00 71 1022.4
20260509030046 58 255 4.0 7.0 0.00 0.00 0.00 70 1022.2
20260509024543 59 236 2.0 11.0 0.00 0.00 0.00 68 1022.1
20260509023142 59 265 6.0 13.0 0.00 0.00 0.00 67 1022.2
20260509021542 60 280 3.0 9.0 0.00 0.00 0.00 67 1022.0
20260509020051 60 294 4.0 12.0 0.00 0.00 0.00 65 1022.0
20260509014541 61 277 6.0 14.0 0.00 0.00 0.00 63 1022.1
20260509013044 62 266 4.0 12.0 0.00 0.00 0.00 63 1022.0
20260509011639 61 253 4.0 10.0 0.00 0.00 0.00 63 1022.1
20260509010041 61 254 3.0 10.0 0.00 0.00 0.00 64 1022.1
20260509004537 61 238 4.0 11.0 0.00 0.00 0.00 62 1022.2
20260509003039 62 289 7.0 13.0 0.00 0.00 0.00 60 1022.2
20260509001536 61 265 8.0 12.0 0.00 0.00 0.00 64 1022.3
20260509000034 61 267 6.0 13.0 0.00 0.00 0.00 62 1022.2
20260508234533 62 325 7.0 14.0 0.00 0.00 0.00 61 1022.1
20260508233034 63 273 6.0 13.0 0.00 0.00 0.00 60 1021.9
20260508231532 63 287 7.0 14.0 0.00 0.00 0.00 59 1022.0
20260508230040 64 286 4.0 10.0 0.00 0.00 0.00 58 1022.1
20260508224530 63 288 8.0 12.0 0.00 0.00 0.00 65 1022.1
20260508223031 64 267 7.0 15.0 0.00 0.00 0.00 57 1022.1
20260508221527 63 310 6.0 14.0 0.00 0.00 0.00 57 1022.0
20260508220028 62 272 7.0 15.0 0.00 0.00 0.00 58 1022.0
20260508214529 63 273 6.0 17.0 0.00 0.00 0.00 58 1022.2
20260508213028 63 297 3.0 13.0 0.00 0.00 0.00 59 1022.1
20260508211533 63 275 5.0 14.0 0.00 0.00 0.00 57 1022.1
20260508210118 61 295 6.0 15.0 0.00 0.00 0.00 59 1022.1
20260508204515 60 293 4.0 18.0 0.00 0.00 0.00 62 1022.0
20260508203013 60 238 4.0 12.0 0.00 0.00 0.00 61 1021.8
20260508201509 59 227 5.0 15.0 0.00 0.00 0.00 64 1021.8
20260508200010 59 263 7.0 10.0 0.00 0.00 0.00 62 1022.0
20260508194516 58 268 5.0 13.0 0.00 0.00 0.00 62 1021.9
20260508193002 57 212 3.0 18.0 0.00 0.00 0.00 66 1021.9
20260508191605 57 255 5.0 15.0 0.00 0.00 0.00 66 1021.8
20260508190057 56 242 7.0 14.0 0.00 0.00 0.00 67 1021.9
20260508184605 54 184 8.0 14.0 0.00 0.00 0.00 68 1021.9
20260508183123 54 265 4.0 11.0 0.00 0.00 0.00 71 1021.9
20260508181603 54 280 5.0 16.0 0.00 0.00 0.00 72 1021.7
20260508180048 54 223 6.0 16.0 0.00 0.00 0.00 70 1021.5
20260508174552 54 227 8.0 17.0 0.00 0.00 0.00 70 1021.3
20260508173043 54 198 9.0 15.0 0.00 0.00 0.00 73 1021.2
20260508171541 53 259 8.0 14.0 0.00 0.00 0.00 75 1021.0
20260508170037 53 259 5.0 13.0 0.00 0.00 0.00 77 1020.7
20260508164539 52 198 0.0 5.0 0.00 0.00 0.00 77 1020.6
20260508163034 52 226 2.0 8.0 0.00 0.00 0.00 80 1020.6
20260508161533 52 188 3.0 10.0 0.00 0.00 0.00 79 1020.3
20260508160033 52 162 4.0 9.0 0.00 0.00 0.00 79 1020.3
20260508154546 52 168 4.0 12.0 0.00 0.00 0.00 79 1020.4
20260508153031 52 181 2.0 10.0 0.00 0.00 0.00 79 1020.4
20260508151533 51 147 3.0 11.0 0.00 0.00 0.00 82 1020.4
20260508150034 50 196 6.0 14.0 0.00 0.00 0.00 82 1020.5
20260508144525 50 183 7.0 14.0 0.00 0.00 0.00 84 1020.4
20260508143023 49 188 6.0 10.0 0.00 0.00 0.00 84 1020.1
20260508141526 49 221 5.0 10.0 0.00 0.00 0.00 85 1019.8
20260508140017 49 178 3.0 11.0 0.00 0.00 0.00 86 1019.6
20260508134514 49 194 2.0 11.0 0.00 0.00 0.00 86 1019.3
20260508133011 49 155 2.0 7.0 0.00 0.00 0.00 86 1019.1
20260508131509 49 187 5.0 8.0 0.00 0.00 0.00 86 1018.8
20260508130011 49 190 4.0 10.0 0.00 0.00 0.00 85 1018.8
20260508124507 50 207 3.0 9.0 0.00 0.00 0.00 85 1018.5
20260508123003 50 214 3.0 9.0 0.00 0.00 0.00 84 1018.4